AMAZONAS 3              
1 39078U 13006A   19260.75591178 -.00000287  00000-0  00000+0 0  9995
2 39078   0.0347 222.8148 0004923 339.5519   5.1957  1.00272795 24256
AZERSPACE 1             
1 39079U 13006B   19260.13121553  .00000128  00000-0  00000+0 0  9997
2 39079   0.0212 175.6400 0001879  32.6631 240.6910  1.00269472 24216
ARIANE 5 R/B            
1 39080U 13006C   19259.13448431  .00000265  00000-0  31896-3 0  9997
2 39080   6.5195 346.2242 7217410  30.9442 356.2625  2.34603106 55942
ARIANE 5 DEB [SYLDA]    
1 39081U 13006D   19260.23761321  .00005861  00000-0  14430-2 0  9998
2 39081   6.1871  32.7522 6458020 300.7499  11.4067  3.37151341 69455